[[{"header":{"parameterUnit":"m.s-1","parameterCategory":1,"la1":30.2991,"la2":30.254,"lo1":-89.0895,"lo2":-89.0444,"dy":0.0017,"dx":0.0017,"nx":28,"ny":28,"refTime":"2024-10-13T09:00:00:Z","depth":0,"parameterNumber":2,"parameterNumberName":"U-component_of_WINDS"},"data":[0,0,0,0,0,0,0,0,0,0,0,0,0,0,0,0,0,0,0,0,0,0,0,0,0,0,0,0,0,0,0,0,0,0,0,0,0,0,0,0,0,0,0,0,0,0,0,0,0,0,0,0,0,0,0,0,0,0,1.7719,1.772,0,1.7845,1.7846,1.7848,1.7857,1.7856,1.7854,1.7853,1.7981,1.7985,1.799,0,0,0,0,0,0,0,0,0,0,0,0,0,1.7485,1.749,1.7719,1.772,1.7722,1.7844,1.7846,1.7848,1.7857,1.7856,1.7854,1.7852,1.7979,1.7985,1.7991,0,0,0,0,0,0,0,0,0,0,0,0,0,1.7596,1.7491,1.7718,1.7741,1.7745,1.7844,1.7846,1.7848,1.7858,1.7855,1.7853,1.7851,1.7977,1.7984,1.7991,1.8076,0,0,1.8013,1.8016,0,0,0,0,0,0,0,0,1.759,1.7605,1.7736,1.774,1.7744,1.7833,1.7811,1.7925,1.7858,1.7815,1.7853,1.785,1.7933,1.7944,1.7972,1.8082,1.8088,1.8013,1.8018,1.8021,1.8023,0,0,0,0,0,0,0,1.7582,1.76,1.7768,1.7738,1.7743,1.7745,1.7758,1.7832,1.7884,1.7818,1.7819,1.7834,1.7935,1.7965,1.7975,1.809,1.8013,1.8019,1.8024,1.8027,1.8276,1.8279,0,0,0,0,0,0,1.7571,1.7593,1.7764,1.7772,1.766,1.7751,1.7766,1.7806,1.7883,1.7893,1.7836,1.7834,1.7954,1.7967,1.798,1.8084,1.8021,1.8027,1.8031,1.8274,1.8277,1.8279,0,0,0,0,0,0,1.7565,1.7586,1.7759,1.7683,1.7705,1.7757,1.7802,1.781,1.784,1.7896,1.7906,1.7857,1.7953,1.797,1.8052,1.8088,1.803,1.8037,1.8271,1.8275,1.8278,1.8293,0,0,0,0,0,0,1.7559,1.7584,1.7617,1.7684,1.7709,1.783,1.7805,1.7814,1.7852,1.7851,1.7919,1.7928,1.7953,1.8042,1.8059,1.8097,1.8042,1.8268,1.8273,1.8277,1.8289,1.8296,1.8303,0,0,0,0,0,1.755,1.7615,1.7618,1.7639,1.7751,1.7832,1.7847,1.7874,1.7855,1.7889,1.7925,1.7926,1.8082,1.805,1.807,1.811,1.8266,1.8271,1.8277,1.8286,1.8295,1.8302,0,0,0,0,0,0,1.755,1.7625,1.7628,1.7717,1.7768,1.7833,1.7876,1.7882,1.7939,1.7936,1.7967,1.7982,1.8063,1.8096,1.8059,1.8197,1.8172,1.8182,1.8172,1.8181,1.8188,1.8178,1.8048,0,0,0,0,0,1.7561,1.762,1.7682,1.7754,1.778,1.7824,1.786,1.7876,1.793,1.7952,1.7994,1.8046,1.8107,1.8146,1.8205,1.8295,1.8309,1.8332,1.8339,1.8344,1.8352,1.8401,1.8412,1.8297,1.8297,1.8297,0,0,1.7582,1.7631,1.7666,1.7756,1.7797,1.7858,1.7842,1.7906,1.7951,1.7962,1.8042,1.8075,1.8135,1.8222,1.8262,1.8251,1.8387,1.8351,1.8355,1.836,1.8408,1.8419,1.8428,1.8301,1.83,1.83,0,0,1.7653,1.7696,1.776,1.7803,1.7866,1.7895,1.7911,1.7976,1.7998,1.808,1.8089,1.8143,1.8247,1.829,1.8325,1.8413,1.8416,1.8432,1.8466,1.8514,1.8523,1.8531,1.8562,1.8572,1.8439,1.844,1.844,0,1.7671,1.7763,1.7793,1.7858,1.7897,1.791,1.7976,1.8015,1.8094,1.8121,1.8108,1.8239,1.8281,1.8377,1.8399,1.8427,1.8446,1.8423,1.8519,1.8528,1.8536,1.8565,1.8577,1.8441,1.8441,1.8441,1.844,0,1.7783,1.7847,1.7892,1.7968,1.8013,1.8078,1.8117,1.8158,1.8172,1.8202,1.8285,1.8336,1.8405,1.843,1.8443,1.8529,1.852,1.8513,1.8488,1.8548,1.8576,1.8587,1.8443,1.8442,1.8442,1.8442,0,0,1.7854,1.7948,1.7964,1.7999,1.8071,1.8121,1.8187,1.8255,1.829,1.8345,1.84,1.8489,1.8483,1.8523,1.8542,1.8584,1.865,1.8572,1.8574,1.8584,1.8747,1.875,1.8763,1.8654,1.8656,1.8658,1.8741,0,1.7931,1.8049,1.8078,1.8179,1.8238,1.8252,1.831,1.836,1.8391,1.8445,1.8479,1.8541,1.8529,1.8554,1.8596,1.8633,1.8683,1.8628,1.8705,1.8707,1.8687,1.8778,1.8782,1.8857,1.8753,1.8754,1.8756,0,1.8037,1.8095,1.8201,1.8266,1.8292,1.8343,1.8408,1.8461,1.8518,1.8538,1.8583,1.8598,1.8667,1.8641,1.8736,1.8698,1.8732,1.8755,1.8758,1.8765,1.8734,1.8785,1.8882,1.8893,1.8774,1.8772,1.8771,0,1.8076,1.8181,1.8258,1.8288,1.8366,1.8402,1.8436,1.8492,1.8531,1.8589,1.8615,1.868,1.8715,1.8765,1.8797,1.8775,1.8889,1.8866,1.8907,1.8906,1.8928,1.8926,1.903,1.8953,1.8953,1.8953,1.8952,0,1.8158,1.8223,1.8277,1.8325,1.8397,1.8431,1.8501,1.8536,1.8586,1.864,1.8657,1.8707,1.8747,1.8803,1.8829,1.8904,1.892,1.8937,1.8943,1.8935,1.8932,1.8955,1.895,1.8956,1.8955,1.8954,1.8954,0,1.8214,1.8253,1.8338,1.8406,1.8425,1.8475,1.8533,1.8579,1.8611,1.8679,1.8697,1.8747,1.8814,1.8852,1.8936,1.8953,1.9036,1.904,1.9016,1.9019,1.9057,1.9052,1.9179,1.9197,1.9108,1.9109,1.911,0,1.8263,1.8313,1.8386,1.8424,1.8459,1.8519,1.856,1.8596,1.8638,1.8708,1.8746,1.8814,1.887,1.8976,1.902,1.9084,1.9089,1.9129,1.9098,1.9089,1.9088,1.9084,1.9088,1.9133,1.9134,1.9135,1.9135,0,1.8345,1.8362,1.8421,1.8487,1.8535,1.8589,1.8642,1.8672,1.8716,1.8762,1.8831,1.8875,1.8961,1.9028,1.9096,1.9131,1.914,1.9145,1.9157,1.9148,1.9132,1.914,1.9029,1.9141,1.914,1.914,1.914,1.9139,1.8397,1.8442,1.8501,1.8566,1.861,1.866,1.8707,1.8745,1.8804,1.8877,1.8895,1.8967,1.9024,1.9117,1.9154,1.9211,1.9204,1.9222,1.9227,1.923,1.9231,1.9125,1.9224,1.9224,1.9224,1.9223,1.9223,0,1.8479,1.8518,1.8578,1.8652,1.8703,1.8709,1.8768,1.881,1.8874,1.8927,1.8982,1.9062,1.9127,1.9177,1.9244,1.928,1.9286,1.9296,1.9293,1.9301,1.9234,1.9216,1.929,1.929,1.929,1.929,1.929,1.929,1.8527,1.8603,1.8628,1.8727,1.8766,1.8837,1.887,1.8916,1.8959,1.9047,1.9102,1.9134,1.9186,1.9257,1.9318,1.9331,1.9354,1.9363,1.9377,1.9313,1.9306,1.9299,1.9281,1.9369,1.9369,1.9438,1.9439,1.9439]},{"header":{"parameterUnit":"m.s-1","parameterCategory":1,"la1":30.2991,"la2":30.254,"lo1":-89.0895,"lo2":-89.0444,"dy":0.0017,"dx":0.0017,"nx":28,"ny":28,"refTime":"2024-10-13T09:00:00:Z","depth":0,"parameterNumber":3,"parameterNumberName":"V-component_of_WINDS"},"data":[0,0,0,0,0,0,0,0,0,0,0,0,0,0,0,0,0,0,0,0,0,0,0,0,0,0,0,0,0,0,0,0,0,0,0,0,0,0,0,0,0,0,0,0,0,0,0,0,0,0,0,0,0,0,0,0,0,0,3.5051,3.5051,0,3.4978,3.4977,3.4976,3.4877,3.4875,3.4873,3.4872,3.4794,3.4793,3.4793,0,0,0,0,0,0,0,0,0,0,0,0,0,3.5105,3.5104,3.5052,3.5051,3.505,3.4978,3.4977,3.4976,3.4877,3.4875,3.4873,3.4871,3.4794,3.4793,3.4793,0,0,0,0,0,0,0,0,0,0,0,0,0,3.5061,3.5104,3.5052,3.4992,3.4986,3.4978,3.4977,3.4976,3.4877,3.4875,3.4872,3.487,3.4794,3.4794,3.4793,3.4837,0,0,3.479,3.479,0,0,0,0,0,0,0,0,3.5064,3.5059,3.5001,3.4996,3.4989,3.4934,3.4967,3.4929,3.4878,3.4918,3.4872,3.4869,3.4842,3.4837,3.4829,3.4834,3.483,3.479,3.479,3.4789,3.4789,0,0,0,0,0,0,0,3.5067,3.5062,3.5022,3.5001,3.4993,3.4968,3.4959,3.4959,3.4895,3.4915,3.4907,3.49,3.4838,3.483,3.4826,3.4829,3.479,3.479,3.4789,3.4789,3.4867,3.4869,0,0,0,0,0,0,3.5079,3.5065,3.5025,3.502,3.5021,3.4969,3.4959,3.4954,3.4895,3.4883,3.4902,3.4896,3.4833,3.4827,3.4823,3.4871,3.4789,3.4789,3.4788,3.4864,3.4867,3.487,0,0,0,0,0,0,3.5081,3.5077,3.5028,3.5041,3.5032,3.4971,3.4966,3.4954,3.4945,3.4886,3.4873,3.4906,3.483,3.4824,3.4835,3.4867,3.4788,3.4788,3.4861,3.4865,3.4869,3.4968,0,0,0,0,0,0,3.5083,3.5078,3.5095,3.5042,3.5032,3.5041,3.4968,3.4954,3.4945,3.4935,3.4885,3.4875,3.4828,3.4837,3.4834,3.4865,3.4787,3.4858,3.4863,3.4867,3.4962,3.4975,3.4987,0,0,0,0,0,3.5085,3.5125,3.5096,3.5092,3.5052,3.5043,3.5038,3.4984,3.4948,3.4964,3.4925,3.4876,3.4865,3.4838,3.4835,3.4866,3.4855,3.4861,3.4867,3.4956,3.4973,3.4986,0,0,0,0,0,0,3.5182,3.5117,3.5084,3.5108,3.5082,3.5027,3.5045,3.5003,3.4986,3.4978,3.4911,3.4901,3.4919,3.4893,3.4866,3.4906,3.4853,3.4858,3.4922,3.4937,3.4949,3.4954,3.4786,0,0,0,0,0,3.5207,3.5206,3.5149,3.5176,3.5164,3.5108,3.5102,3.5063,3.5032,3.5021,3.4983,3.4955,3.4945,3.4939,3.4927,3.4958,3.4945,3.4977,3.499,3.5,3.5005,3.502,3.5033,3.4889,3.4889,3.4889,0,0,3.5257,3.5221,3.5225,3.5194,3.5169,3.5169,3.5099,3.5102,3.5101,3.5021,3.5028,3.5,3.4964,3.4985,3.4993,3.4964,3.5043,3.5008,3.5016,3.5016,3.5027,3.5041,3.5053,3.4893,3.4892,3.4891,0,0,3.5348,3.5322,3.5341,3.5318,3.5282,3.5244,3.5249,3.5199,3.5178,3.5185,3.5125,3.5122,3.5106,3.5083,3.507,3.5153,3.5107,3.5151,3.5215,3.523,3.5241,3.5251,3.528,3.5292,3.5156,3.5157,3.5157,0,3.5415,3.5413,3.5356,3.5363,3.5351,3.528,3.5299,3.5279,3.5241,3.5234,3.5203,3.5182,3.5153,3.5167,3.5188,3.5179,3.5182,3.5156,3.5244,3.5253,3.5262,3.5289,3.53,3.5162,3.5162,3.5161,3.516,0,3.5497,3.5497,3.5517,3.5482,3.5473,3.5486,3.543,3.5427,3.539,3.5355,3.5362,3.5325,3.5304,3.5305,3.5267,3.5314,3.5298,3.5257,3.5202,3.5282,3.5306,3.5317,3.517,3.5168,3.5166,3.5165,0,0,3.5646,3.5581,3.5589,3.5573,3.5528,3.5526,3.5536,3.5516,3.5515,3.5491,3.5497,3.5485,3.5447,3.5432,3.5391,3.5404,3.5473,3.5361,3.5359,3.5383,3.5522,3.5552,3.5566,3.5442,3.5444,3.5446,3.5524,0,3.5729,3.5742,3.5692,3.5718,3.5717,3.565,3.5658,3.5631,3.5599,3.5593,3.5557,3.555,3.55,3.549,3.5501,3.5463,3.55,3.5456,3.5446,3.5447,3.5457,3.5578,3.5611,3.5687,3.5534,3.5535,3.5536,0,3.5826,3.5809,3.5835,3.5789,3.5787,3.5795,3.5773,3.5768,3.5736,3.5712,3.5696,3.5649,3.5654,3.5603,3.5609,3.5581,3.5574,3.5555,3.5556,3.5553,3.5496,3.5578,3.571,3.5721,3.5551,3.555,3.5549,0,3.5932,3.5915,3.5929,3.5917,3.5864,3.5871,3.5849,3.5815,3.5806,3.5787,3.578,3.5761,3.5751,3.5737,3.5686,3.5653,3.5698,3.5643,3.5678,3.5679,3.5689,3.5689,3.5822,3.5686,3.5686,3.5686,3.5686,0,3.6029,3.6048,3.5976,3.5984,3.6003,3.5945,3.5965,3.5936,3.5906,3.5907,3.5848,3.585,3.5783,3.5778,3.5738,3.5749,3.5745,3.5725,3.5714,3.573,3.5732,3.5724,3.5717,3.5689,3.5688,3.5688,3.5687,0,3.615,3.6103,3.6113,3.6063,3.605,3.6067,3.6023,3.6028,3.5993,3.5995,3.5992,3.5936,3.5926,3.5875,3.5853,3.5826,3.5851,3.583,3.5862,3.5855,3.5893,3.589,3.6024,3.6039,3.5895,3.5896,3.5898,0,3.6215,3.6228,3.6179,3.6176,3.6157,3.6153,3.6144,3.6087,3.6081,3.6046,3.6055,3.6041,3.6027,3.6015,3.5971,3.5955,3.5932,3.598,3.5929,3.5944,3.5932,3.5932,3.5932,3.5991,3.5993,3.5994,3.5996,0,3.6335,3.6311,3.6301,3.6283,3.6274,3.6257,3.6237,3.6237,3.6174,3.6169,3.616,3.6149,3.6127,3.6114,3.609,3.6066,3.602,3.6012,3.6019,3.6035,3.6054,3.6044,3.5892,3.6009,3.6008,3.6007,3.6006,3.6006,3.6429,3.6437,3.6404,3.6395,3.6374,3.6356,3.6359,3.6325,3.6316,3.6294,3.6261,3.6256,3.6223,3.6187,3.6167,3.6161,3.6135,3.6145,3.6148,3.6151,3.6159,3.6056,3.6157,3.6156,3.6156,3.6155,3.6155,0,3.6545,3.6521,3.6513,3.6486,3.6479,3.6439,3.6414,3.641,3.6407,3.6381,3.6369,3.6357,3.6344,3.6301,3.6283,3.6287,3.6265,3.6284,3.6283,3.6278,3.6184,3.6179,3.6302,3.6302,3.6302,3.6302,3.6302,3.6301,3.6604,3.6616,3.6589,3.659,3.6565,3.6561,3.655,3.6533,3.6512,3.6503,3.6492,3.6464,3.6431,3.641,3.6396,3.6384,3.638,3.6405,3.6386,3.6299,3.6284,3.6271,3.6266,3.6405,3.6405,3.648,3.648,3.6481]}]]